Year,Month,Day,Hour,Minute,Value (Times are PST for windgust in km/hr)
2012,12,02,00,00,24.20
2012,12,02,00,01,20.90
2012,12,02,00,02,25.70
2012,12,02,00,03,30.60
2012,12,02,00,04,30.60
2012,12,02,00,05,32.20
2012,12,02,00,06,20.90
2012,12,02,00,07,30.60
2012,12,02,00,08,38.60
2012,12,02,00,09,24.20
2012,12,02,00,10,22.50
2012,12,02,00,11,27.40
2012,12,02,00,12,29.00
2012,12,02,00,13,27.40
2012,12,02,00,14,11.30
2012,12,02,00,15,22.50
2012,12,02,00,16,22.50
2012,12,02,00,17,25.70
2012,12,02,00,18,22.50
2012,12,02,00,19,24.20
2012,12,02,00,20,19.30
2012,12,02,00,21,20.90
2012,12,02,00,22,19.30
2012,12,02,00,23,19.30
2012,12,02,00,24,20.90
2012,12,02,00,25,22.50
2012,12,02,00,26,19.30
2012,12,02,00,27,24.20
2012,12,02,00,28,22.50
2012,12,02,00,29,17.70
2012,12,02,00,30,19.30
2012,12,02,00,31,33.80
2012,12,02,00,32,27.40
2012,12,02,00,33,22.50
2012,12,02,00,34,25.70
2012,12,02,00,35,19.30
2012,12,02,00,36,16.10
2012,12,02,00,37,19.30
2012,12,02,00,38,22.50
2012,12,02,00,39,17.70
2012,12,02,00,40,12.90
2012,12,02,00,41,22.50
2012,12,02,00,42,22.50
2012,12,02,00,43,19.30
2012,12,02,00,44,17.70
2012,12,02,00,45,27.40
2012,12,02,00,46,19.30
2012,12,02,00,47,11.30
2012,12,02,00,48,14.50
2012,12,02,00,49,6.40
2012,12,02,00,50,11.30
2012,12,02,00,51,11.30
2012,12,02,00,52,9.60
2012,12,02,00,53,11.30
2012,12,02,00,54,16.10
2012,12,02,00,55,11.30
2012,12,02,00,56,16.10
2012,12,02,00,57,16.10
2012,12,02,00,58,20.90
2012,12,02,00,59,11.30
2012,12,02,01,00,11.30
2012,12,02,01,01,11.30
2012,12,02,01,02,17.70
2012,12,02,01,03,22.50
2012,12,02,01,04,17.70
2012,12,02,01,05,17.70
2012,12,02,01,06,6.40
2012,12,02,01,07,17.70
2012,12,02,01,08,22.50
2012,12,02,01,09,19.30
2012,12,02,01,10,11.30
2012,12,02,01,11,14.50
2012,12,02,01,12,17.70
2012,12,02,01,13,16.10
2012,12,02,01,14,19.30
2012,12,02,01,15,16.10
2012,12,02,01,16,25.70
2012,12,02,01,17,22.50
2012,12,02,01,18,19.30
2012,12,02,01,19,17.70
2012,12,02,01,20,16.10
2012,12,02,01,21,16.10
2012,12,02,01,22,17.70
2012,12,02,01,23,16.10
2012,12,02,01,24,29.00
2012,12,02,01,25,24.20
2012,12,02,01,26,20.90
2012,12,02,01,27,20.90
2012,12,02,01,28,17.70
2012,12,02,01,29,25.70
2012,12,02,01,30,29.00
2012,12,02,01,31,27.40
2012,12,02,01,32,19.30
2012,12,02,01,33,17.70
2012,12,02,01,34,19.30
2012,12,02,01,35,22.50
2012,12,02,01,36,17.70
2012,12,02,01,37,17.70
2012,12,02,01,38,25.70
2012,12,02,01,39,11.30
2012,12,02,01,40,20.90
2012,12,02,01,41,17.70
2012,12,02,01,42,24.20
2012,12,02,01,43,22.50
2012,12,02,01,44,17.70
2012,12,02,01,45,16.10
2012,12,02,01,46,17.70
2012,12,02,01,47,17.70
2012,12,02,01,48,9.60
2012,12,02,01,49,20.90
2012,12,02,01,50,20.90
2012,12,02,01,51,27.40
2012,12,02,01,52,35.40
2012,12,02,01,53,25.70
2012,12,02,01,54,9.60
2012,12,02,01,55,17.70
2012,12,02,01,56,11.30
2012,12,02,01,57,16.10
2012,12,02,01,58,17.70
2012,12,02,01,59,17.70
2012,12,02,02,00,16.10
2012,12,02,02,01,20.90
2012,12,02,02,02,24.20
2012,12,02,02,03,16.10
2012,12,02,02,04,25.70
2012,12,02,02,05,16.10
2012,12,02,02,06,14.50
2012,12,02,02,07,14.50
2012,12,02,02,08,14.50
2012,12,02,02,09,16.10
2012,12,02,02,10,16.10
2012,12,02,02,11,14.50
2012,12,02,02,12,17.70
2012,12,02,02,13,25.70
2012,12,02,02,14,16.10
2012,12,02,02,15,17.70
2012,12,02,02,16,19.30
2012,12,02,02,17,14.50
2012,12,02,02,18,12.90
2012,12,02,02,19,9.60
2012,12,02,02,20,16.10
2012,12,02,02,21,11.30
2012,12,02,02,22,9.60
2012,12,02,02,23,17.70
2012,12,02,02,24,12.90
2012,12,02,02,25,11.30
2012,12,02,02,26,16.10
2012,12,02,02,27,14.50
2012,12,02,02,28,11.30
2012,12,02,02,29,16.10
2012,12,02,02,30,17.70
2012,12,02,02,31,14.50
2012,12,02,02,32,9.60
2012,12,02,02,33,16.10
2012,12,02,02,34,14.50
2012,12,02,02,35,11.30
2012,12,02,02,36,11.30
2012,12,02,02,37,16.10
2012,12,02,02,38,12.90
2012,12,02,02,39,19.30
2012,12,02,02,40,14.50
2012,12,02,02,41,14.50
2012,12,02,02,42,11.30
2012,12,02,02,43,9.60
2012,12,02,02,44,8.10
2012,12,02,02,45,11.30
2012,12,02,02,46,11.30
2012,12,02,02,47,11.30
2012,12,02,02,48,11.30
2012,12,02,02,49,14.50
2012,12,02,02,50,12.90
2012,12,02,02,51,9.60
2012,12,02,02,52,8.10
2012,12,02,02,53,8.10
2012,12,02,02,54,8.10
2012,12,02,02,55,9.60
2012,12,02,02,56,14.50
2012,12,02,02,57,8.10
2012,12,02,02,58,11.30
2012,12,02,02,59,14.50
2012,12,02,03,00,16.10
2012,12,02,03,01,9.60
2012,12,02,03,02,11.30
2012,12,02,03,03,14.50
2012,12,02,03,04,11.30
2012,12,02,03,05,14.50
2012,12,02,03,06,9.60
2012,12,02,03,07,11.30
2012,12,02,03,08,11.30
2012,12,02,03,09,11.30
2012,12,02,03,10,9.60
2012,12,02,03,11,9.60
2012,12,02,03,12,14.50
2012,12,02,03,13,12.90
2012,12,02,03,14,11.30
2012,12,02,03,15,17.70
2012,12,02,03,16,17.70
2012,12,02,03,17,11.30
2012,12,02,03,18,11.30
2012,12,02,03,19,9.60
2012,12,02,03,20,9.60
2012,12,02,03,21,8.10
2012,12,02,03,22,11.30
2012,12,02,03,23,11.30
2012,12,02,03,24,9.60
2012,12,02,03,25,11.30
2012,12,02,03,26,9.60
2012,12,02,03,27,9.60
2012,12,02,03,28,11.30
2012,12,02,03,29,8.10
2012,12,02,03,30,8.10
2012,12,02,03,31,9.60
2012,12,02,03,32,8.10
2012,12,02,03,33,11.30
2012,12,02,03,34,8.10
2012,12,02,03,35,9.60
2012,12,02,03,36,9.60
2012,12,02,03,37,8.10
2012,12,02,03,38,8.10
2012,12,02,03,39,11.30
2012,12,02,03,40,8.10
2012,12,02,03,41,6.40
2012,12,02,03,42,8.10
2012,12,02,03,43,8.10
2012,12,02,03,44,9.60
2012,12,02,03,45,11.30
2012,12,02,03,46,8.10
2012,12,02,03,47,8.10
2012,12,02,03,48,8.10
2012,12,02,03,49,9.60
2012,12,02,03,50,8.10
2012,12,02,03,51,8.10
2012,12,02,03,52,8.10
2012,12,02,03,53,6.40
2012,12,02,03,54,9.60
2012,12,02,03,55,9.60
2012,12,02,03,56,12.90
2012,12,02,03,57,14.50
2012,12,02,03,58,9.60
2012,12,02,03,59,6.40
2012,12,02,04,00,9.60
2012,12,02,04,01,6.40
2012,12,02,04,02,9.60
2012,12,02,04,03,9.60
2012,12,02,04,04,9.60
2012,12,02,04,05,4.80
2012,12,02,04,06,4.80
2012,12,02,04,07,4.80
2012,12,02,04,08,4.80
2012,12,02,04,09,8.10
2012,12,02,04,10,9.60
2012,12,02,04,11,9.60
2012,12,02,04,12,9.60
2012,12,02,04,13,11.30
2012,12,02,04,14,14.50
2012,12,02,04,15,11.30
2012,12,02,04,16,9.60
2012,12,02,04,17,11.30
2012,12,02,04,18,8.10
2012,12,02,04,19,9.60
2012,12,02,04,20,11.30
2012,12,02,04,21,9.60
2012,12,02,04,22,8.10
2012,12,02,04,23,6.40
2012,12,02,04,24,6.40
2012,12,02,04,25,4.80
2012,12,02,04,26,3.20
2012,12,02,04,27,9.60
2012,12,02,04,28,9.60
2012,12,02,04,29,3.20
2012,12,02,04,30,4.80
2012,12,02,04,31,6.40
2012,12,02,04,32,4.80
2012,12,02,04,33,6.40
2012,12,02,04,34,3.20
2012,12,02,04,35,6.40
2012,12,02,04,36,6.40
2012,12,02,04,37,3.20
2012,12,02,04,38,1.60
2012,12,02,04,39,6.40
2012,12,02,04,40,8.10
2012,12,02,04,41,8.10
2012,12,02,04,42,8.10
2012,12,02,04,43,6.40
2012,12,02,04,44,6.40
2012,12,02,04,45,6.40
2012,12,02,04,46,8.10
2012,12,02,04,47,9.60
2012,12,02,04,48,14.50
2012,12,02,04,49,8.10
2012,12,02,04,50,9.60
2012,12,02,04,51,9.60
2012,12,02,04,52,9.60
2012,12,02,04,53,3.20
2012,12,02,04,54,8.10
2012,12,02,04,55,3.20
2012,12,02,04,56,9.60
2012,12,02,04,57,8.10
2012,12,02,04,58,8.10
2012,12,02,04,59,6.40
2012,12,02,05,00,4.80
2012,12,02,05,01,4.80
2012,12,02,05,02,1.60
2012,12,02,05,03,3.20
2012,12,02,05,04,9.60
2012,12,02,05,05,6.40
2012,12,02,05,06,8.10
2012,12,02,05,07,8.10
2012,12,02,05,08,3.20
2012,12,02,05,09,8.10
2012,12,02,05,10,4.80
2012,12,02,05,11,3.20
2012,12,02,05,12,3.20
2012,12,02,05,13,1.60
2012,12,02,05,14,1.60
2012,12,02,05,16,3.20
2012,12,02,05,21,3.20
2012,12,02,05,22,3.20
2012,12,02,05,25,1.60
2012,12,02,05,26,1.60
2012,12,02,05,27,1.60
2012,12,02,05,28,1.60
2012,12,02,05,32,3.20
2012,12,02,05,34,1.60
2012,12,02,05,38,1.60
2012,12,02,05,39,1.60
2012,12,02,05,51,1.60
2012,12,02,05,52,1.60
2012,12,02,05,55,1.60
2012,12,02,05,56,3.20
2012,12,02,05,57,3.20
2012,12,02,05,58,4.80
2012,12,02,05,59,6.40
2012,12,02,06,00,4.80
2012,12,02,06,01,3.20
2012,12,02,06,02,4.80
2012,12,02,06,03,9.60
2012,12,02,06,04,6.40
2012,12,02,06,05,4.80
2012,12,02,06,06,1.60
2012,12,02,06,07,6.40
2012,12,02,06,08,6.40
2012,12,02,06,09,6.40
2012,12,02,06,10,6.40
2012,12,02,06,11,6.40
2012,12,02,06,12,6.40
2012,12,02,06,13,4.80
2012,12,02,06,14,1.60
2012,12,02,06,15,3.20
2012,12,02,06,16,3.20
2012,12,02,06,17,3.20
2012,12,02,06,18,3.20
2012,12,02,06,19,3.20
2012,12,02,06,34,1.60
2012,12,02,06,35,1.60
2012,12,02,06,38,1.60
2012,12,02,06,39,3.20
2012,12,02,06,40,1.60
2012,12,02,06,42,1.60
2012,12,02,06,43,3.20
2012,12,02,06,44,1.60
2012,12,02,06,45,1.60
2012,12,02,06,46,1.60
2012,12,02,06,47,1.60
2012,12,02,06,48,3.20
2012,12,02,06,49,3.20
2012,12,02,06,50,3.20
2012,12,02,06,51,1.60
2012,12,02,06,52,4.80
2012,12,02,06,53,6.40
2012,12,02,06,54,3.20
2012,12,02,06,55,3.20
2012,12,02,06,56,3.20
2012,12,02,06,57,4.80
2012,12,02,06,58,3.20
2012,12,02,06,59,1.60
2012,12,02,07,00,4.80
2012,12,02,07,01,3.20
2012,12,02,07,02,6.40
2012,12,02,07,03,4.80
2012,12,02,07,04,4.80
2012,12,02,07,05,4.80
2012,12,02,07,06,4.80
2012,12,02,07,07,3.20
2012,12,02,07,09,1.60
2012,12,02,07,10,3.20
2012,12,02,07,11,3.20
2012,12,02,07,12,1.60
2012,12,02,07,13,1.60
2012,12,02,07,17,3.20
2012,12,02,07,18,3.20
2012,12,02,07,19,1.60
2012,12,02,07,21,1.60
2012,12,02,07,22,1.60
2012,12,02,07,23,3.20
2012,12,02,07,24,6.40
2012,12,02,07,25,8.10
2012,12,02,07,26,3.20
2012,12,02,07,29,1.60
2012,12,02,07,30,3.20
2012,12,02,07,31,4.80
2012,12,02,07,32,4.80
2012,12,02,07,34,1.60
2012,12,02,07,35,3.20
2012,12,02,07,36,4.80
2012,12,02,07,37,3.20
2012,12,02,07,38,8.10
2012,12,02,07,39,8.10
2012,12,02,07,40,6.40
2012,12,02,07,44,3.20
2012,12,02,07,45,8.10
2012,12,02,07,46,6.40
2012,12,02,07,48,1.60
2012,12,02,07,49,4.80
2012,12,02,07,50,4.80
2012,12,02,07,51,4.80
2012,12,02,07,52,1.60
2012,12,02,07,54,3.20
2012,12,02,07,55,4.80
2012,12,02,07,56,4.80
2012,12,02,07,57,3.20
2012,12,02,07,58,3.20
2012,12,02,07,59,6.40
2012,12,02,08,00,4.80
2012,12,02,08,01,3.20
2012,12,02,08,02,4.80
2012,12,02,08,03,6.40
2012,12,02,08,04,4.80
2012,12,02,08,05,6.40
2012,12,02,08,06,4.80
2012,12,02,08,07,3.20
2012,12,02,08,08,1.60
2012,12,02,08,09,1.60
2012,12,02,08,10,3.20
2012,12,02,08,11,3.20
2012,12,02,08,14,6.40
2012,12,02,08,15,6.40
2012,12,02,08,16,6.40
2012,12,02,08,17,6.40
2012,12,02,08,18,6.40
2012,12,02,08,19,6.40
2012,12,02,08,20,4.80
2012,12,02,08,21,3.20
2012,12,02,08,22,4.80
2012,12,02,08,23,1.60
2012,12,02,08,24,3.20
2012,12,02,08,25,3.20
2012,12,02,08,26,1.60
2012,12,02,08,28,4.80
2012,12,02,08,29,6.40
2012,12,02,08,30,3.20
2012,12,02,08,31,3.20
2012,12,02,08,32,3.20
2012,12,02,08,38,3.20
2012,12,02,08,39,4.80
2012,12,02,08,40,3.20
2012,12,02,08,41,3.20
2012,12,02,08,42,3.20
2012,12,02,08,43,3.20
2012,12,02,08,44,3.20
2012,12,02,08,45,4.80
2012,12,02,08,46,3.20
2012,12,02,08,47,3.20
2012,12,02,08,48,1.60
2012,12,02,08,53,1.60
2012,12,02,08,54,6.40
2012,12,02,08,55,6.40
2012,12,02,08,56,4.80
2012,12,02,08,57,3.20
2012,12,02,09,05,3.20
2012,12,02,09,06,1.60
2012,12,02,09,07,3.20
2012,12,02,09,08,1.60
2012,12,02,09,09,3.20
2012,12,02,09,10,3.20
2012,12,02,09,13,3.20
2012,12,02,09,14,4.80
2012,12,02,09,15,4.80
2012,12,02,09,16,4.80
2012,12,02,09,17,4.80
2012,12,02,09,18,3.20
2012,12,02,09,20,3.20
2012,12,02,09,21,3.20
2012,12,02,09,22,1.60
2012,12,02,09,23,6.40
2012,12,02,09,24,6.40
2012,12,02,09,25,6.40
2012,12,02,09,26,8.10
2012,12,02,09,27,6.40
2012,12,02,09,28,3.20
2012,12,02,09,29,3.20
2012,12,02,09,30,3.20
2012,12,02,09,31,6.40
2012,12,02,09,32,6.40
2012,12,02,09,33,4.80
2012,12,02,09,34,1.60
2012,12,02,09,35,4.80
2012,12,02,09,36,4.80
2012,12,02,09,37,6.40
2012,12,02,09,38,8.10
2012,12,02,09,39,4.80
2012,12,02,09,40,1.60
2012,12,02,09,41,1.60
2012,12,02,09,42,1.60
2012,12,02,09,43,1.60
2012,12,02,09,44,3.20
2012,12,02,10,01,1.60
2012,12,02,10,02,1.60
2012,12,02,10,11,1.60
2012,12,02,10,12,1.60
2012,12,02,10,14,1.60
2012,12,02,10,20,1.60
2012,12,02,10,21,1.60
2012,12,02,10,22,3.20
2012,12,02,10,23,1.60
2012,12,02,10,24,1.60
2012,12,02,10,25,1.60
2012,12,02,10,26,3.20
2012,12,02,10,27,4.80
2012,12,02,10,28,6.40
2012,12,02,10,29,8.10
2012,12,02,10,30,9.60
2012,12,02,10,31,6.40
2012,12,02,10,32,6.40
2012,12,02,10,33,6.40
2012,12,02,10,34,9.60
2012,12,02,10,35,8.10
2012,12,02,10,36,8.10
2012,12,02,10,37,11.30
2012,12,02,10,38,4.80
2012,12,02,10,39,9.60
2012,12,02,10,40,9.60
2012,12,02,10,41,11.30
2012,12,02,10,42,9.60
2012,12,02,10,43,8.10
2012,12,02,10,44,6.40
2012,12,02,10,45,8.10
2012,12,02,10,46,9.60
2012,12,02,10,47,8.10
2012,12,02,10,48,4.80
2012,12,02,10,49,6.40
2012,12,02,10,50,1.60
2012,12,02,10,51,3.20
2012,12,02,10,52,4.80
2012,12,02,10,53,4.80
2012,12,02,10,54,4.80
2012,12,02,10,55,6.40
2012,12,02,10,56,6.40
2012,12,02,10,57,8.10
2012,12,02,10,58,4.80
2012,12,02,10,59,11.30
2012,12,02,11,00,9.60
2012,12,02,11,01,16.10
2012,12,02,11,02,16.10
2012,12,02,11,03,14.50
2012,12,02,11,04,16.10
2012,12,02,11,05,9.60
2012,12,02,11,06,9.60
2012,12,02,11,07,6.40
2012,12,02,11,08,8.10
2012,12,02,11,09,8.10
2012,12,02,11,10,4.80
2012,12,02,11,11,6.40
2012,12,02,11,12,3.20
2012,12,02,11,13,3.20
2012,12,02,11,14,8.10
2012,12,02,11,15,8.10
2012,12,02,11,16,4.80
2012,12,02,11,17,4.80
2012,12,02,11,18,3.20
2012,12,02,11,19,6.40
2012,12,02,11,20,8.10
2012,12,02,11,21,9.60
2012,12,02,11,22,8.10
2012,12,02,11,23,9.60
2012,12,02,11,24,9.60
2012,12,02,11,25,9.60
2012,12,02,11,26,16.10
2012,12,02,11,27,9.60
2012,12,02,11,28,9.60
2012,12,02,11,29,9.60
2012,12,02,11,30,14.50
2012,12,02,11,31,11.30
2012,12,02,11,32,9.60
2012,12,02,11,33,9.60
2012,12,02,11,34,9.60
2012,12,02,11,35,11.30
2012,12,02,11,36,8.10
2012,12,02,11,37,14.50
2012,12,02,11,38,17.70
2012,12,02,11,39,14.50
2012,12,02,11,40,16.10
2012,12,02,11,41,11.30
2012,12,02,11,42,16.10
2012,12,02,11,43,17.70
2012,12,02,11,44,19.30
2012,12,02,11,45,16.10
2012,12,02,11,46,14.50
2012,12,02,11,47,17.70
2012,12,02,11,48,16.10
2012,12,02,11,49,16.10
2012,12,02,11,50,17.70
2012,12,02,11,51,19.30
2012,12,02,11,52,17.70
2012,12,02,11,53,19.30
2012,12,02,11,54,17.70
2012,12,02,11,55,20.90
2012,12,02,11,56,19.30
2012,12,02,11,57,16.10
2012,12,02,11,58,16.10
2012,12,02,11,59,14.50
2012,12,02,12,00,19.30
2012,12,02,12,01,17.70
2012,12,02,12,02,14.50
2012,12,02,12,03,17.70
2012,12,02,12,04,16.10
2012,12,02,12,05,16.10
2012,12,02,12,06,11.30
2012,12,02,12,07,14.50
2012,12,02,12,08,9.60
2012,12,02,12,09,16.10
2012,12,02,12,10,17.70
2012,12,02,12,11,17.70
2012,12,02,12,12,17.70
2012,12,02,12,13,16.10
2012,12,02,12,14,17.70
2012,12,02,12,15,16.10
2012,12,02,12,16,17.70
2012,12,02,12,17,11.30
2012,12,02,12,18,14.50
2012,12,02,12,19,14.50
2012,12,02,12,20,14.50
2012,12,02,12,21,11.30
2012,12,02,12,22,14.50
2012,12,02,12,23,12.90
2012,12,02,12,24,16.10
2012,12,02,12,25,19.30
2012,12,02,12,26,17.70
2012,12,02,12,27,14.50
2012,12,02,12,28,19.30
2012,12,02,12,29,11.30
2012,12,02,12,30,17.70
2012,12,02,12,31,16.10
2012,12,02,12,32,12.90
2012,12,02,12,33,16.10
2012,12,02,12,34,17.70
2012,12,02,12,35,17.70
2012,12,02,12,36,9.60
2012,12,02,12,37,17.70
2012,12,02,12,38,19.30
2012,12,02,12,39,17.70
2012,12,02,12,40,11.30
2012,12,02,12,41,16.10
2012,12,02,12,42,14.50
2012,12,02,12,43,14.50
2012,12,02,12,44,9.60
2012,12,02,12,45,14.50
2012,12,02,12,46,16.10
2012,12,02,12,47,14.50
2012,12,02,12,48,11.30
2012,12,02,12,49,11.30
2012,12,02,12,50,11.30
2012,12,02,12,51,16.10
2012,12,02,12,52,11.30
2012,12,02,12,53,14.50
2012,12,02,12,54,17.70
2012,12,02,12,55,17.70
2012,12,02,12,56,12.90
2012,12,02,12,57,16.10
2012,12,02,12,58,16.10
2012,12,02,12,59,16.10
2012,12,02,13,00,11.30
2012,12,02,13,01,8.10
2012,12,02,13,02,8.10
2012,12,02,13,03,8.10
2012,12,02,13,04,11.30
2012,12,02,13,05,14.50
2012,12,02,13,06,9.60
2012,12,02,13,07,11.30
2012,12,02,13,08,8.10
2012,12,02,13,09,11.30
2012,12,02,13,10,11.30
2012,12,02,13,11,8.10
2012,12,02,13,12,8.10
2012,12,02,13,13,9.60
2012,12,02,13,14,9.60
2012,12,02,13,15,14.50
2012,12,02,13,16,17.70
2012,12,02,13,17,16.10
2012,12,02,13,18,14.50
2012,12,02,13,19,14.50
2012,12,02,13,20,14.50
2012,12,02,13,21,11.30
2012,12,02,13,22,11.30
2012,12,02,13,23,9.60
2012,12,02,13,24,9.60
2012,12,02,13,25,9.60
2012,12,02,13,26,9.60
2012,12,02,13,27,8.10
2012,12,02,13,28,14.50
2012,12,02,13,29,14.50
2012,12,02,13,30,16.10
2012,12,02,13,31,14.50
2012,12,02,13,32,11.30
2012,12,02,13,33,9.60
2012,12,02,13,34,12.90
2012,12,02,13,35,12.90
2012,12,02,13,36,16.10
2012,12,02,13,37,17.70
2012,12,02,13,38,12.90
2012,12,02,13,39,16.10
2012,12,02,13,40,20.90
2012,12,02,13,41,22.50
2012,12,02,13,42,20.90
2012,12,02,13,43,20.90
2012,12,02,13,44,20.90
2012,12,02,13,45,19.30
2012,12,02,13,46,17.70
2012,12,02,13,47,16.10
2012,12,02,13,48,17.70
2012,12,02,13,49,19.30
2012,12,02,13,50,19.30
2012,12,02,13,51,19.30
2012,12,02,13,52,11.30
2012,12,02,13,53,19.30
2012,12,02,13,54,14.50
2012,12,02,13,55,11.30
2012,12,02,13,56,11.30
2012,12,02,13,57,9.60
2012,12,02,13,58,9.60
2012,12,02,13,59,9.60
2012,12,02,14,00,12.90
2012,12,02,14,01,11.30
2012,12,02,14,02,9.60
2012,12,02,14,03,8.10
2012,12,02,14,04,8.10
2012,12,02,14,05,3.20
2012,12,02,14,06,8.10
2012,12,02,14,07,6.40
2012,12,02,14,08,1.60
2012,12,02,14,09,3.20
2012,12,02,14,10,3.20
2012,12,02,14,11,6.40
2012,12,02,14,12,4.80
2012,12,02,14,13,1.60
2012,12,02,14,15,4.80
2012,12,02,14,16,4.80
2012,12,02,14,17,1.60
2012,12,02,14,19,3.20
2012,12,02,14,24,4.80
2012,12,02,14,25,4.80
2012,12,02,14,26,4.80
2012,12,02,14,27,4.80
2012,12,02,14,28,1.60
2012,12,02,14,29,4.80
2012,12,02,14,30,8.10
2012,12,02,14,31,3.20
2012,12,02,14,32,1.60
2012,12,02,14,33,1.60
2012,12,02,14,34,1.60
2012,12,02,14,35,3.20
2012,12,02,14,36,3.20
2012,12,02,14,37,6.40
2012,12,02,14,38,8.10
2012,12,02,14,39,9.60
2012,12,02,14,40,9.60
2012,12,02,14,41,9.60
2012,12,02,14,42,8.10
2012,12,02,14,43,6.40
2012,12,02,14,44,1.60
2012,12,02,14,45,1.60
2012,12,02,14,46,3.20
2012,12,02,14,47,6.40
2012,12,02,14,48,4.80
2012,12,02,14,49,4.80
2012,12,02,14,50,6.40
2012,12,02,14,51,8.10
2012,12,02,14,52,4.80
2012,12,02,14,53,3.20
2012,12,02,14,56,3.20
2012,12,02,14,57,4.80
2012,12,02,14,58,3.20
2012,12,02,14,59,4.80
2012,12,02,15,00,4.80
2012,12,02,15,01,6.40
2012,12,02,15,02,4.80
2012,12,02,15,03,4.80
2012,12,02,15,04,3.20
2012,12,02,15,05,1.60
2012,12,02,15,06,4.80
2012,12,02,15,07,8.10
2012,12,02,15,08,6.40
2012,12,02,15,09,6.40
2012,12,02,15,10,6.40
2012,12,02,15,11,4.80
2012,12,02,15,16,1.60
2012,12,02,15,17,1.60
2012,12,02,15,25,4.80
2012,12,02,15,26,4.80
2012,12,02,15,27,4.80
2012,12,02,15,28,9.60
2012,12,02,15,29,3.20
2012,12,02,15,31,4.80
2012,12,02,15,32,8.10
2012,12,02,15,33,4.80
2012,12,02,15,34,8.10
2012,12,02,15,35,6.40
2012,12,02,15,36,8.10
2012,12,02,15,37,6.40
2012,12,02,15,38,6.40
2012,12,02,15,39,6.40
2012,12,02,15,40,6.40
2012,12,02,15,41,3.20
2012,12,02,15,42,6.40
2012,12,02,15,43,8.10
2012,12,02,15,44,8.10
2012,12,02,15,45,6.40
2012,12,02,15,46,6.40
2012,12,02,15,47,8.10
2012,12,02,15,48,6.40
2012,12,02,15,49,8.10
2012,12,02,15,50,4.80
2012,12,02,15,51,6.40
2012,12,02,15,52,9.60
2012,12,02,15,53,8.10
2012,12,02,15,54,8.10
2012,12,02,15,55,6.40
2012,12,02,15,56,8.10
2012,12,02,15,57,11.30
2012,12,02,15,58,11.30
2012,12,02,15,59,9.60
2012,12,02,16,00,9.60
2012,12,02,16,01,9.60
2012,12,02,16,02,8.10
2012,12,02,16,03,3.20
2012,12,02,16,04,3.20
2012,12,02,16,05,1.60
2012,12,02,16,08,3.20
2012,12,02,16,09,6.40
2012,12,02,16,10,6.40
2012,12,02,16,11,9.60
2012,12,02,16,12,9.60
2012,12,02,16,13,9.60
2012,12,02,16,14,9.60
2012,12,02,16,15,6.40
2012,12,02,16,16,6.40
2012,12,02,16,17,4.80
2012,12,02,16,18,8.10
2012,12,02,16,19,3.20
2012,12,02,16,20,4.80
2012,12,02,16,21,4.80
2012,12,02,16,22,1.60
2012,12,02,16,23,3.20
2012,12,02,16,25,4.80
2012,12,02,16,26,8.10
2012,12,02,16,27,9.60
2012,12,02,16,28,9.60
2012,12,02,16,29,11.30
2012,12,02,16,30,6.40
2012,12,02,16,31,6.40
2012,12,02,16,32,6.40
2012,12,02,16,33,6.40
2012,12,02,16,34,8.10
2012,12,02,16,35,3.20
2012,12,02,16,36,3.20
2012,12,02,16,37,4.80
2012,12,02,16,38,3.20
2012,12,02,16,39,1.60
2012,12,02,16,45,1.60
2012,12,02,16,48,3.20
2012,12,02,16,49,1.60
2012,12,02,16,52,1.60
2012,12,02,16,56,1.60
2012,12,02,16,58,1.60
2012,12,02,16,59,4.80
2012,12,02,17,00,8.10
2012,12,02,17,01,6.40
2012,12,02,17,02,3.20
2012,12,02,17,05,1.60
2012,12,02,17,10,1.60
2012,12,02,17,11,4.80
2012,12,02,17,12,3.20
2012,12,02,17,13,3.20
2012,12,02,17,14,3.20
2012,12,02,17,15,3.20
2012,12,02,17,16,3.20
2012,12,02,17,17,4.80
2012,12,02,17,18,3.20
2012,12,02,17,19,4.80
2012,12,02,17,20,3.20
2012,12,02,17,21,1.60
2012,12,02,17,22,3.20
2012,12,02,17,23,8.10
2012,12,02,17,24,11.30
2012,12,02,17,25,3.20
2012,12,02,17,27,1.60
2012,12,02,17,28,1.60
2012,12,02,17,29,3.20
2012,12,02,17,33,3.20
2012,12,02,17,34,6.40
2012,12,02,17,35,6.40
2012,12,02,17,36,6.40
2012,12,02,17,37,9.60
2012,12,02,17,38,11.30
2012,12,02,17,39,12.90
2012,12,02,17,40,9.60
2012,12,02,17,41,11.30
2012,12,02,17,42,9.60
2012,12,02,17,43,6.40
2012,12,02,17,44,8.10
2012,12,02,17,45,6.40
2012,12,02,17,46,9.60
2012,12,02,17,47,8.10
2012,12,02,17,48,14.50
2012,12,02,17,49,12.90
2012,12,02,17,50,9.60
2012,12,02,17,51,6.40
2012,12,02,17,52,6.40
2012,12,02,17,53,3.20
2012,12,02,17,54,6.40
2012,12,02,17,55,8.10
2012,12,02,17,56,9.60
2012,12,02,17,57,11.30
2012,12,02,17,58,9.60
2012,12,02,17,59,17.70
2012,12,02,18,00,19.30
2012,12,02,18,01,17.70
2012,12,02,18,02,16.10
2012,12,02,18,03,14.50
2012,12,02,18,04,9.60
2012,12,02,18,05,14.50
2012,12,02,18,06,12.90
2012,12,02,18,07,12.90
2012,12,02,18,08,9.60
2012,12,02,18,09,9.60
2012,12,02,18,10,8.10
2012,12,02,18,11,6.40
2012,12,02,18,12,4.80
2012,12,02,18,13,3.20
2012,12,02,18,14,3.20
2012,12,02,18,15,4.80
2012,12,02,18,16,3.20
2012,12,02,18,17,6.40
2012,12,02,18,18,6.40
2012,12,02,18,19,6.40
2012,12,02,18,20,8.10
2012,12,02,18,21,6.40
2012,12,02,18,22,4.80
2012,12,02,18,23,9.60
2012,12,02,18,24,6.40
2012,12,02,18,25,6.40
2012,12,02,18,26,6.40
2012,12,02,18,27,4.80
2012,12,02,18,28,6.40
2012,12,02,18,29,11.30
2012,12,02,18,30,8.10
2012,12,02,18,31,14.50
2012,12,02,18,32,11.30
2012,12,02,18,33,9.60
2012,12,02,18,34,8.10
2012,12,02,18,35,8.10
2012,12,02,18,36,8.10
2012,12,02,18,37,6.40
2012,12,02,18,38,6.40
2012,12,02,18,39,6.40
2012,12,02,18,40,6.40
2012,12,02,18,41,8.10
2012,12,02,18,42,8.10
2012,12,02,18,43,9.60
2012,12,02,18,44,9.60
2012,12,02,18,45,11.30
2012,12,02,18,46,11.30
2012,12,02,18,47,11.30
2012,12,02,18,48,11.30
2012,12,02,18,49,14.50
2012,12,02,18,50,16.10
2012,12,02,18,51,16.10
2012,12,02,18,52,16.10
2012,12,02,18,53,11.30
2012,12,02,18,54,16.10
2012,12,02,18,55,14.50
2012,12,02,18,56,11.30
2012,12,02,18,57,16.10
2012,12,02,18,58,11.30
2012,12,02,18,59,12.90
2012,12,02,19,00,11.30
2012,12,02,19,01,12.90
2012,12,02,19,02,11.30
2012,12,02,19,03,11.30
2012,12,02,19,04,11.30
2012,12,02,19,05,11.30
2012,12,02,19,06,9.60
2012,12,02,19,07,9.60
2012,12,02,19,08,6.40
2012,12,02,19,09,4.80
2012,12,02,19,10,4.80
2012,12,02,19,11,4.80
2012,12,02,19,12,4.80
2012,12,02,19,13,4.80
2012,12,02,19,14,6.40
2012,12,02,19,15,6.40
2012,12,02,19,16,6.40
2012,12,02,19,17,6.40
2012,12,02,19,18,3.20
2012,12,02,19,19,4.80
2012,12,02,19,20,4.80
2012,12,02,19,21,3.20
2012,12,02,19,22,6.40
2012,12,02,19,23,8.10
2012,12,02,19,24,6.40
2012,12,02,19,25,9.60
2012,12,02,19,26,9.60
2012,12,02,19,27,8.10
2012,12,02,19,28,8.10
2012,12,02,19,29,9.60
2012,12,02,19,30,8.10
2012,12,02,19,31,8.10
2012,12,02,19,32,8.10
2012,12,02,19,33,11.30
2012,12,02,19,34,11.30
2012,12,02,19,35,11.30
2012,12,02,19,36,11.30
2012,12,02,19,37,11.30
2012,12,02,19,38,9.60
2012,12,02,19,39,9.60
2012,12,02,19,40,6.40
2012,12,02,19,41,9.60
2012,12,02,19,42,9.60
2012,12,02,19,43,16.10
2012,12,02,19,44,9.60
2012,12,02,19,45,9.60
2012,12,02,19,46,9.60
2012,12,02,19,47,9.60
2012,12,02,19,48,9.60
2012,12,02,19,49,6.40
2012,12,02,19,50,8.10
2012,12,02,19,51,8.10
2012,12,02,19,52,8.10
2012,12,02,19,53,3.20
2012,12,02,19,54,3.20
2012,12,02,19,55,6.40
2012,12,02,19,56,6.40
2012,12,02,19,57,4.80
2012,12,02,19,58,4.80
2012,12,02,19,59,4.80
2012,12,02,20,00,3.20
2012,12,02,20,01,3.20
2012,12,02,20,02,4.80
2012,12,02,20,03,6.40
2012,12,02,20,04,8.10
2012,12,02,20,05,8.10
2012,12,02,20,06,4.80
2012,12,02,20,07,4.80
2012,12,02,20,08,6.40
2012,12,02,20,09,4.80
2012,12,02,20,10,6.40
2012,12,02,20,11,8.10
2012,12,02,20,12,6.40
2012,12,02,20,13,4.80
2012,12,02,20,14,6.40
2012,12,02,20,15,6.40
2012,12,02,20,16,6.40
2012,12,02,20,17,1.60
2012,12,02,20,20,1.60
2012,12,02,20,21,1.60
2012,12,02,20,22,4.80
2012,12,02,20,23,3.20
2012,12,02,20,24,1.60
2012,12,02,20,25,3.20
2012,12,02,20,26,3.20